Time,TemperatureF,DewpointF,PressureIn,WindDirection,WindDirectionDegrees,WindSpeedMPH,WindSpeedGustMPH,Humidity,HourlyPrecipIn,Conditions,Clouds,dailyrainin,SoftwareType,DateUTC
2014-01-23 00:00:00,43.0,37.6,30.17,SSE,161,0.0,1.0,81,0.00,,SKC,0.00,VWS V14.01,2014-01-23 06:00:00,
2014-01-23 00:03:00,42.9,37.8,30.17,SSE,161,0.0,0.0,82,0.00,,SKC,0.00,VWS V14.01,2014-01-23 06:03:00,
2014-01-23 00:08:00,42.6,37.8,30.17,SSE,161,0.0,0.0,83,0.00,,SKC,0.00,VWS V14.01,2014-01-23 06:08:00,
2014-01-23 00:13:00,42.5,37.7,30.18,SSE,161,0.0,0.0,83,0.00,,SKC,0.00,VWS V14.01,2014-01-23 06:13:00,
2014-01-23 00:18:00,42.3,37.8,30.18,SSE,161,0.0,0.0,84,0.00,,SKC,0.00,VWS V14.01,2014-01-23 06:18:00,
2014-01-23 00:23:00,42.1,37.9,30.18,SSE,161,0.0,0.0,85,0.00,,SKC,0.00,VWS V14.01,2014-01-23 06:23:00,
2014-01-23 00:28:00,41.9,37.7,30.17,SSE,161,0.0,0.0,85,0.00,,SKC,0.00,VWS V14.01,2014-01-23 06:28:00,
2014-01-23 00:30:00,41.9,38.0,30.18,SSE,161,0.0,0.0,86,0.00,,SKC,0.00,VWS V14.01,2014-01-23 06:30:00,
2014-01-23 00:33:00,41.8,37.9,30.18,SSE,161,0.0,0.0,86,0.00,,SKC,0.00,VWS V14.01,2014-01-23 06:33:00,
2014-01-23 00:38:00,41.8,37.9,30.17,SSE,161,0.0,0.0,86,0.00,,SKC,0.00,VWS V14.01,2014-01-23 06:38:00,
2014-01-23 00:43:00,41.7,37.8,30.18,SSE,161,0.0,0.0,86,0.00,,SKC,0.00,VWS V14.01,2014-01-23 06:43:00,
2014-01-23 00:48:00,41.6,37.7,30.18,SSE,161,0.0,0.0,86,0.00,,SKC,0.00,VWS V14.01,2014-01-23 06:48:00,
2014-01-23 00:53:00,41.5,37.9,30.18,SSE,161,0.0,0.0,87,0.00,,SKC,0.00,VWS V14.01,2014-01-23 06:53:00,
2014-01-23 00:58:00,41.6,38.0,30.18,SSE,161,0.0,0.0,87,0.00,,SKC,0.00,VWS V14.01,2014-01-23 06:58:00,
2014-01-23 01:00:00,41.7,38.1,30.18,SSE,161,0.0,0.0,87,0.00,,SKC,0.00,VWS V14.01,2014-01-23 07:00:00,
2014-01-23 01:03:00,41.8,38.2,30.18,SSE,161,0.0,0.0,87,0.00,,SKC,0.00,VWS V14.01,2014-01-23 07:03:00,
2014-01-23 01:08:00,41.8,38.2,30.18,SSE,161,0.0,0.0,87,0.00,,SKC,0.00,VWS V14.01,2014-01-23 07:08:00,
2014-01-23 01:13:00,41.7,37.8,30.18,SSE,161,0.0,0.0,86,0.00,,SKC,0.00,VWS V14.01,2014-01-23 07:13:00,
2014-01-23 01:18:00,41.6,37.7,30.19,SSE,161,0.0,0.0,86,0.00,,SKC,0.00,VWS V14.01,2014-01-23 07:18:00,
2014-01-23 01:23:00,41.5,37.9,30.19,SSE,161,0.0,0.0,87,0.00,,SKC,0.00,VWS V14.01,2014-01-23 07:23:00,
2014-01-23 01:28:00,41.4,37.8,30.19,SSE,161,0.0,0.0,87,0.00,,SKC,0.00,VWS V14.01,2014-01-23 07:28:00,
2014-01-23 01:30:00,41.4,37.8,30.19,SSE,161,0.0,0.0,87,0.00,,SKC,0.00,VWS V14.01,2014-01-23 07:30:00,
2014-01-23 01:33:00,41.4,37.8,30.19,SSE,161,0.0,0.0,87,0.00,,SKC,0.00,VWS V14.01,2014-01-23 07:33:00,
2014-01-23 01:38:00,41.3,37.7,30.19,SSE,161,0.0,0.0,87,0.00,,SKC,0.00,VWS V14.01,2014-01-23 07:38:00,
2014-01-23 01:43:00,41.2,37.6,30.19,SSE,161,0.0,0.0,87,0.00,,SKC,0.00,VWS V14.01,2014-01-23 07:43:00,
2014-01-23 01:48:00,41.2,37.9,30.19,SSE,161,0.0,0.0,88,0.00,,SKC,0.00,VWS V14.01,2014-01-23 07:48:00,
2014-01-23 01:53:00,41.2,37.9,30.19,SSE,161,0.0,0.0,88,0.00,,SKC,0.00,VWS V14.01,2014-01-23 07:53:00,
2014-01-23 01:58:00,41.3,38.0,30.19,SSE,161,0.0,0.0,88,0.00,,SKC,0.00,VWS V14.01,2014-01-23 07:58:00,
2014-01-23 02:00:00,41.3,38.0,30.19,SSE,161,0.0,0.0,88,0.00,,SKC,0.00,VWS V14.01,2014-01-23 08:00:00,
2014-01-23 02:03:00,41.4,38.1,30.19,SSE,161,0.0,0.0,88,0.00,,SKC,0.00,VWS V14.01,2014-01-23 08:03:00,
2014-01-23 02:08:00,41.6,38.3,30.19,SSE,161,0.0,0.0,88,0.00,,SKC,0.00,VWS V14.01,2014-01-23 08:08:00,
2014-01-23 02:13:00,41.8,38.5,30.19,SSE,161,0.0,0.0,88,0.00,,SKC,0.00,VWS V14.01,2014-01-23 08:13:00,
2014-01-23 02:18:00,42.0,38.4,30.19,SSE,149,0.0,0.0,87,0.00,,SKC,0.00,VWS V14.01,2014-01-23 08:18:00,
2014-01-23 02:23:00,42.2,38.6,30.19,SE,144,0.0,0.0,87,0.00,,SKC,0.00,VWS V14.01,2014-01-23 08:23:00,
2014-01-23 02:28:00,42.3,38.7,30.19,ESE,117,0.0,0.0,87,0.00,,SKC,0.00,VWS V14.01,2014-01-23 08:28:00,
2014-01-23 02:30:00,42.3,38.7,30.19,ESE,117,0.0,0.0,87,0.00,,SKC,0.00,VWS V14.01,2014-01-23 08:30:00,
2014-01-23 02:33:00,42.4,38.8,30.19,ESE,117,0.0,1.0,87,0.00,,SKC,0.00,VWS V14.01,2014-01-23 08:33:00,
2014-01-23 02:38:00,42.4,38.8,30.19,ESE,117,0.0,1.0,87,0.00,,SKC,0.00,VWS V14.01,2014-01-23 08:38:00,
2014-01-23 02:43:00,42.5,38.9,30.19,ESE,117,0.0,1.0,87,0.00,,SKC,0.00,VWS V14.01,2014-01-23 08:43:00,
2014-01-23 02:48:00,42.5,38.6,30.20,ESE,117,0.0,1.0,86,0.00,,SKC,0.00,VWS V14.01,2014-01-23 08:48:00,
2014-01-23 02:53:00,42.6,38.7,30.20,ESE,117,0.0,1.0,86,0.00,,SKC,0.00,VWS V14.01,2014-01-23 08:53:00,
2014-01-23 02:58:00,42.6,38.7,30.20,ESE,117,0.0,1.0,86,0.00,,SKC,0.00,VWS V14.01,2014-01-23 08:58:00,
2014-01-23 03:00:00,42.6,38.7,30.20,ESE,117,0.0,1.0,86,0.00,,SKC,0.00,VWS V14.01,2014-01-23 09:00:00,
2014-01-23 03:03:00,42.6,38.7,30.20,ESE,117,0.0,1.0,86,0.00,,SKC,0.00,VWS V14.01,2014-01-23 09:03:00,
2014-01-23 03:08:00,42.6,38.7,30.19,ESE,111,0.0,1.0,86,0.00,,SKC,0.00,VWS V14.01,2014-01-23 09:08:00,
2014-01-23 03:13:00,42.6,38.7,30.19,ESE,111,0.0,1.0,86,0.00,,SKC,0.00,VWS V14.01,2014-01-23 09:13:00,
2014-01-23 03:18:00,42.5,38.6,30.20,ESE,111,0.0,1.0,86,0.00,,SKC,0.00,VWS V14.01,2014-01-23 09:18:00,
2014-01-23 03:23:00,42.6,38.7,30.20,ESE,111,0.0,1.0,86,0.00,,SKC,0.00,VWS V14.01,2014-01-23 09:23:00,
2014-01-23 03:28:00,42.7,38.8,30.20,ESE,111,0.0,1.0,86,0.00,,SKC,0.00,VWS V14.01,2014-01-23 09:28:00,
2014-01-23 03:30:00,42.7,38.8,30.20,ESE,111,0.0,1.0,86,0.00,,SKC,0.00,VWS V14.01,2014-01-23 09:30:00,
2014-01-23 03:33:00,42.7,38.5,30.20,ESE,111,0.0,0.0,85,0.00,,SKC,0.00,VWS V14.01,2014-01-23 09:33:00,
2014-01-23 03:38:00,42.7,38.5,30.20,ESE,111,0.0,0.0,85,0.00,,SKC,0.00,VWS V14.01,2014-01-23 09:38:00,
2014-01-23 03:43:00,42.6,38.4,30.20,ESE,111,0.0,0.0,85,0.00,,SKC,0.00,VWS V14.01,2014-01-23 09:43:00,
2014-01-23 03:48:00,42.5,38.3,30.20,ESE,111,0.0,0.0,85,0.00,,SKC,0.00,VWS V14.01,2014-01-23 09:48:00,
2014-01-23 03:53:00,42.4,38.5,30.20,ESE,111,0.0,0.0,86,0.00,,SKC,0.00,VWS V14.01,2014-01-23 09:53:00,
2014-01-23 03:58:00,42.5,38.6,30.20,ESE,111,0.0,0.0,86,0.00,,SKC,0.00,VWS V14.01,2014-01-23 09:58:00,
2014-01-23 04:00:00,44.0,39.8,30.23,ENE,61,0.0,2.0,85,0.00,,SKC,0.00,VWS V14.01,2014-01-23 10:00:00,
2014-01-23 04:03:00,42.5,38.6,30.20,ESE,111,0.0,0.0,86,0.00,,SKC,0.00,VWS V14.01,2014-01-23 10:03:00,
2014-01-23 04:08:00,42.6,38.7,30.20,ESE,111,0.0,0.0,86,0.00,,SKC,0.00,VWS V14.01,2014-01-23 10:08:00,
2014-01-23 04:13:00,42.7,38.8,30.20,ESE,111,0.0,0.0,86,0.00,,SKC,0.00,VWS V14.01,2014-01-23 10:13:00,
2014-01-23 04:18:00,42.7,38.8,30.21,ESE,111,0.0,0.0,86,0.00,,SKC,0.00,VWS V14.01,2014-01-23 10:18:00,
2014-01-23 04:23:00,42.8,38.9,30.21,ESE,111,0.0,0.0,86,0.00,,SKC,0.00,VWS V14.01,2014-01-23 10:23:00,
2014-01-23 04:28:00,42.9,39.0,30.21,ESE,111,0.0,0.0,86,0.00,,SKC,0.00,VWS V14.01,2014-01-23 10:28:00,
2014-01-23 04:30:00,43.0,39.1,30.21,ESE,111,0.0,0.0,86,0.00,,SKC,0.00,VWS V14.01,2014-01-23 10:30:00,
2014-01-23 04:33:00,43.1,39.2,30.21,ESE,111,0.0,0.0,86,0.00,,SKC,0.00,VWS V14.01,2014-01-23 10:33:00,
2014-01-23 04:38:00,43.3,39.1,30.22,ESE,111,0.0,0.0,85,0.00,,SKC,0.00,VWS V14.01,2014-01-23 10:38:00,
2014-01-23 04:43:00,43.4,39.2,30.22,East,96,0.0,1.0,85,0.00,,SKC,0.00,VWS V14.01,2014-01-23 10:43:00,
2014-01-23 04:48:00,43.5,39.3,30.22,East,87,0.0,2.0,85,0.00,,SKC,0.00,VWS V14.01,2014-01-23 10:48:00,
2014-01-23 04:53:00,43.6,39.4,30.22,East,86,0.0,2.0,85,0.00,,SKC,0.00,VWS V14.01,2014-01-23 10:53:00,
2014-01-23 04:58:00,43.9,39.7,30.22,ENE,62,0.0,2.0,85,0.00,,SKC,0.00,VWS V14.01,2014-01-23 10:58:00,
2014-01-23 05:00:00,44.0,39.8,30.23,ENE,61,0.0,2.0,85,0.00,,SKC,0.00,VWS V14.01,2014-01-23 11:00:00,
2014-01-23 05:04:00,44.1,39.9,30.23,ENE,61,0.0,2.0,85,0.00,,SKC,0.00,VWS V14.01,2014-01-23 11:04:00,
2014-01-23 05:09:00,44.2,40.0,30.23,ENE,65,2.0,3.0,85,0.00,,SKC,0.00,VWS V14.01,2014-01-23 11:09:00,
2014-01-23 05:14:00,44.4,40.2,30.24,NE,53,1.0,3.0,85,0.00,,SKC,0.00,VWS V14.01,2014-01-23 11:14:00,
2014-01-23 05:19:00,44.5,40.3,30.24,ENE,73,0.0,3.0,85,0.00,,SKC,0.00,VWS V14.01,2014-01-23 11:19:00,
2014-01-23 05:24:00,44.6,40.4,30.24,East,87,0.0,3.0,85,0.00,,SKC,0.00,VWS V14.01,2014-01-23 11:24:00,
2014-01-23 05:29:00,44.8,40.9,30.24,East,84,2.0,5.0,86,0.00,,SKC,0.00,VWS V14.01,2014-01-23 11:29:00,
2014-01-23 05:30:00,44.9,41.0,30.24,East,94,1.0,5.0,86,0.00,,SKC,0.00,VWS V14.01,2014-01-23 11:30:00,
2014-01-23 05:34:00,45.0,41.1,30.24,East,92,1.0,3.0,86,0.00,,SKC,0.00,VWS V14.01,2014-01-23 11:34:00,
2014-01-23 05:39:00,45.0,41.1,30.24,East,82,1.0,4.0,86,0.00,,SKC,0.00,VWS V14.01,2014-01-23 11:39:00,
2014-01-23 05:44:00,45.0,41.4,30.24,East,82,1.0,4.0,87,0.00,,SKC,0.00,VWS V14.01,2014-01-23 11:44:00,
2014-01-23 05:49:00,45.1,41.5,30.24,ENE,78,2.0,4.0,87,0.00,,SKC,0.00,VWS V14.01,2014-01-23 11:49:00,
2014-01-23 05:54:00,45.1,41.5,30.24,East,80,2.0,4.0,87,0.00,,SKC,0.00,VWS V14.01,2014-01-23 11:54:00,
2014-01-23 05:59:00,45.2,41.3,30.25,ENE,74,0.0,4.0,86,0.00,,SKC,0.00,VWS V14.01,2014-01-23 11:59:00,
2014-01-23 06:00:00,45.3,41.4,30.25,ENE,76,0.0,4.0,86,0.00,,SKC,0.00,VWS V14.01,2014-01-23 12:00:00,
2014-01-23 06:04:00,45.3,41.4,30.25,ENE,78,1.0,1.0,86,0.00,,SKC,0.00,VWS V14.01,2014-01-23 12:04:00,
2014-01-23 06:09:00,45.3,41.1,30.25,East,82,0.0,2.0,85,0.00,,SKC,0.00,VWS V14.01,2014-01-23 12:09:00,
2014-01-23 06:14:00,45.3,41.1,30.25,ENE,78,2.0,3.0,85,0.00,,SKC,0.00,VWS V14.01,2014-01-23 12:14:00,
2014-01-23 06:19:00,45.3,40.8,30.25,East,83,1.0,3.0,84,0.00,,SKC,0.00,VWS V14.01,2014-01-23 12:19:00,
2014-01-23 06:24:00,45.2,41.0,30.25,ENE,72,2.0,3.0,85,0.00,,SKC,0.00,VWS V14.01,2014-01-23 12:24:00,
2014-01-23 06:29:00,45.3,40.8,30.26,NE,56,0.0,3.0,84,0.00,,SKC,0.00,VWS V14.01,2014-01-23 12:29:00,
2014-01-23 06:30:00,45.3,40.8,30.26,ENE,63,1.0,3.0,84,0.00,,SKC,0.00,VWS V14.01,2014-01-23 12:30:00,
2014-01-23 06:34:00,45.3,40.8,30.26,ENE,63,2.0,2.0,84,0.00,,SKC,0.00,VWS V14.01,2014-01-23 12:34:00,
2014-01-23 06:39:00,45.2,40.7,30.26,NE,41,2.0,3.0,84,0.00,,SKC,0.00,VWS V14.01,2014-01-23 12:39:00,
2014-01-23 06:44:00,45.2,40.7,30.26,ENE,65,1.0,4.0,84,0.00,,SKC,0.00,VWS V14.01,2014-01-23 12:44:00,
2014-01-23 06:49:00,45.3,40.8,30.27,ENE,64,3.0,4.0,84,0.00,,SKC,0.00,VWS V14.01,2014-01-23 12:49:00,
2014-01-23 06:54:00,45.3,40.8,30.27,East,80,3.0,7.0,84,0.00,,SKC,0.00,VWS V14.01,2014-01-23 12:54:00,
2014-01-23 06:59:00,45.3,40.5,30.27,ENE,75,3.0,8.0,83,0.00,,SKC,0.00,VWS V14.01,2014-01-23 12:59:00,
2014-01-23 07:00:00,45.3,40.5,30.27,ENE,77,2.0,8.0,83,0.00,,SKC,0.00,VWS V14.01,2014-01-23 13:00:00,
2014-01-23 07:04:00,45.2,40.3,30.28,ENE,77,3.0,7.0,83,0.00,,SKC,0.00,VWS V14.01,2014-01-23 13:04:00,
2014-01-23 07:09:00,45.2,40.3,30.28,ENE,63,2.0,7.0,83,0.00,,SKC,0.00,VWS V14.01,2014-01-23 13:09:00,
2014-01-23 07:14:00,45.2,40.3,30.29,NE,52,3.0,7.0,83,0.00,,SKC,0.00,VWS V14.01,2014-01-23 13:14:00,
2014-01-23 07:19:00,45.2,40.3,30.29,ENE,76,2.0,7.0,83,0.00,,SKC,0.00,VWS V14.01,2014-01-23 13:19:00,
2014-01-23 07:24:00,45.3,40.8,30.29,NE,40,6.0,7.0,84,0.00,,SKC,0.00,VWS V14.01,2014-01-23 13:24:00,
2014-01-23 07:29:00,45.5,40.7,30.30,ENE,69,7.0,10.0,83,0.00,,SKC,0.00,VWS V14.01,2014-01-23 13:29:00,
2014-01-23 07:30:00,45.5,40.7,30.30,ENE,75,4.0,10.0,83,0.00,,SKC,0.00,VWS V14.01,2014-01-23 13:30:00,
2014-01-23 07:34:00,45.6,40.7,30.30,NE,46,5.0,6.0,83,0.00,,SKC,0.00,VWS V14.01,2014-01-23 13:34:00,
2014-01-23 07:39:00,45.5,40.7,30.30,NE,35,6.0,8.0,83,0.00,,SKC,0.00,VWS V14.01,2014-01-23 13:39:00,
2014-01-23 07:44:00,45.4,40.5,30.31,ENE,62,7.0,10.0,83,0.00,,SKC,0.00,VWS V14.01,2014-01-23 13:44:00,
2014-01-23 07:49:00,45.4,40.5,30.31,NNE,32,1.0,10.0,83,0.00,,SKC,0.00,VWS V14.01,2014-01-23 13:49:00,
2014-01-23 07:54:00,45.6,40.4,30.32,NNE,26,1.0,12.0,82,0.00,,SKC,0.00,VWS V14.01,2014-01-23 13:54:00,
2014-01-23 07:59:00,45.7,40.5,30.32,North,9,0.0,12.0,82,0.00,,SKC,0.00,VWS V14.01,2014-01-23 13:59:00,
2014-01-23 08:00:00,45.7,40.5,30.32,ENE,69,1.0,12.0,82,0.00,,SKC,0.00,VWS V14.01,2014-01-23 14:00:00,
2014-01-23 08:04:00,45.7,40.5,30.31,NE,51,7.0,8.0,82,0.00,,SKC,0.00,VWS V14.01,2014-01-23 14:04:00,
2014-01-23 08:09:00,45.7,40.5,30.31,East,92,2.0,9.0,82,0.00,,SKC,0.00,VWS V14.01,2014-01-23 14:09:00,
2014-01-23 08:14:00,45.8,40.6,30.32,NE,50,3.0,9.0,82,0.00,,SKC,0.00,VWS V14.01,2014-01-23 14:14:00,
2014-01-23 08:19:00,46.0,40.8,30.32,East,84,1.0,9.0,82,0.00,,SKC,0.00,VWS V14.01,2014-01-23 14:19:00,
2014-01-23 08:24:00,46.2,40.7,30.32,ENE,71,4.0,9.0,81,0.00,,SKC,0.00,VWS V14.01,2014-01-23 14:24:00,
2014-01-23 08:29:00,46.5,40.7,30.32,East,80,2.0,9.0,80,0.00,,SKC,0.00,VWS V14.01,2014-01-23 14:29:00,
2014-01-23 08:30:00,46.5,40.7,30.32,NE,40,1.0,9.0,80,0.00,,SKC,0.00,VWS V14.01,2014-01-23 14:30:00,
2014-01-23 08:34:00,46.8,41.0,30.32,East,79,3.0,5.0,80,0.00,,SKC,0.00,VWS V14.01,2014-01-23 14:34:00,
2014-01-23 08:39:00,47.0,40.8,30.33,ENE,70,8.0,9.0,79,0.00,,SKC,0.00,VWS V14.01,2014-01-23 14:39:00,
2014-01-23 08:44:00,47.3,41.1,30.33,ENE,78,5.0,11.0,79,0.00,,SKC,0.00,VWS V14.01,2014-01-23 14:44:00,
2014-01-23 08:49:00,47.4,40.6,30.33,East,98,5.0,11.0,77,0.00,,SKC,0.00,VWS V14.01,2014-01-23 14:49:00,
2014-01-23 08:54:00,47.4,40.2,30.33,East,88,7.0,11.0,76,0.00,,SKC,0.00,VWS V14.01,2014-01-23 14:54:00,
2014-01-23 08:59:00,47.6,40.4,30.33,East,88,5.0,11.0,76,0.00,,SKC,0.00,VWS V14.01,2014-01-23 14:59:00,
2014-01-23 09:00:00,47.7,40.2,30.33,ENE,60,4.0,11.0,75,0.00,,SKC,0.00,VWS V14.01,2014-01-23 15:00:00,
2014-01-23 09:04:00,47.8,40.3,30.33,East,92,7.0,9.0,75,0.00,,SKC,0.00,VWS V14.01,2014-01-23 15:04:00,
2014-01-23 09:09:00,48.1,40.6,30.33,East,86,7.0,9.0,75,0.00,,SKC,0.00,VWS V14.01,2014-01-23 15:09:00,
2014-01-23 09:14:00,48.5,40.6,30.33,East,86,2.0,9.0,74,0.00,,SKC,0.00,VWS V14.01,2014-01-23 15:14:00,
2014-01-23 09:19:00,48.8,40.2,30.33,ENE,76,3.0,13.0,72,0.00,,SKC,0.00,VWS V14.01,2014-01-23 15:19:00,
2014-01-23 09:24:00,49.0,40.4,30.34,ESE,105,4.0,13.0,72,0.00,,SKC,0.00,VWS V14.01,2014-01-23 15:24:00,
2014-01-23 09:29:00,49.0,39.7,30.34,East,98,3.0,13.0,70,0.00,,SKC,0.00,VWS V14.01,2014-01-23 15:29:00,
2014-01-23 09:30:00,49.0,39.7,30.34,East,95,6.0,13.0,70,0.00,,SKC,0.00,VWS V14.01,2014-01-23 15:30:00,
2014-01-23 09:34:00,48.8,38.7,30.34,East,88,9.0,14.0,68,0.00,,SKC,0.00,VWS V14.01,2014-01-23 15:34:00,
2014-01-23 09:39:00,48.8,38.7,30.34,ENE,63,5.0,14.0,68,0.00,,SKC,0.00,VWS V14.01,2014-01-23 15:39:00,
2014-01-23 09:44:00,48.9,38.8,30.34,ENE,61,2.0,14.0,68,0.00,,SKC,0.00,VWS V14.01,2014-01-23 15:44:00,
2014-01-23 09:49:00,49.1,39.4,30.34,ENE,74,5.0,14.0,69,0.00,,SKC,0.00,VWS V14.01,2014-01-23 15:49:00,
2014-01-23 09:54:00,49.1,39.4,30.35,East,96,7.0,14.0,69,0.00,,SKC,0.00,VWS V14.01,2014-01-23 15:54:00,
2014-01-23 09:59:00,49.5,40.1,30.35,NE,50,3.0,14.0,70,0.00,,SKC,0.00,VWS V14.01,2014-01-23 15:59:00,
2014-01-23 10:00:00,49.7,40.3,30.35,East,91,3.0,14.0,70,0.00,,SKC,0.00,VWS V14.01,2014-01-23 16:00:00,
2014-01-23 10:04:00,49.9,39.8,30.35,ENE,61,5.0,14.0,68,0.00,,SKC,0.00,VWS V14.01,2014-01-23 16:04:00,
2014-01-23 10:09:00,49.7,40.0,30.35,East,96,8.0,14.0,69,0.00,,SKC,0.00,VWS V14.01,2014-01-23 16:09:00,
2014-01-23 10:14:00,49.9,40.5,30.35,ENE,78,8.0,14.0,70,0.00,,SKC,0.00,VWS V14.01,2014-01-23 16:14:00,
2014-01-23 10:19:00,49.8,40.4,30.35,East,98,11.0,15.0,70,0.00,,SKC,0.00,VWS V14.01,2014-01-23 16:19:00,
2014-01-23 10:24:00,49.6,40.2,30.35,East,91,10.0,15.0,70,0.00,,SKC,0.00,VWS V14.01,2014-01-23 16:24:00,
2014-01-23 10:29:00,49.9,40.2,30.35,ESE,103,8.0,15.0,69,0.00,,SKC,0.00,VWS V14.01,2014-01-23 16:29:00,
2014-01-23 10:30:00,50.1,40.3,30.35,East,92,8.0,15.0,69,0.00,,SKC,0.00,VWS V14.01,2014-01-23 16:30:00,
2014-01-23 10:34:00,50.4,39.9,30.35,ENE,66,11.0,13.0,67,0.00,,SKC,0.00,VWS V14.01,2014-01-23 16:34:00,
2014-01-23 10:39:00,50.6,39.7,30.35,East,90,7.0,16.0,66,0.00,,SKC,0.00,VWS V14.01,2014-01-23 16:39:00,
2014-01-23 10:44:00,51.1,39.8,30.35,ENE,73,8.0,16.0,65,0.00,,SKC,0.00,VWS V14.01,2014-01-23 16:44:00,
2014-01-23 10:49:00,50.8,38.7,30.35,NE,43,6.0,16.0,63,0.00,,SKC,0.00,VWS V14.01,2014-01-23 16:49:00,
2014-01-23 10:54:00,50.8,38.7,30.34,East,87,10.0,16.0,63,0.00,,SKC,0.00,VWS V14.01,2014-01-23 16:54:00,
2014-01-23 10:59:00,51.1,39.0,30.34,ENE,71,12.0,16.0,63,0.00,,SKC,0.00,VWS V14.01,2014-01-23 16:59:00,
2014-01-23 11:00:00,51.1,38.5,30.34,East,83,11.0,16.0,62,0.00,,SKC,0.00,VWS V14.01,2014-01-23 17:00:00,
2014-01-23 11:04:00,51.2,38.2,30.34,ENE,78,10.0,14.0,61,0.00,,SKC,0.00,VWS V14.01,2014-01-23 17:04:00,
2014-01-23 11:09:00,51.0,38.0,30.34,ENE,66,4.0,14.0,61,0.00,,SKC,0.00,VWS V14.01,2014-01-23 17:09:00,
2014-01-23 11:14:00,51.1,37.7,30.34,ESE,102,3.0,15.0,60,0.00,,SKC,0.00,VWS V14.01,2014-01-23 17:14:00,
2014-01-23 11:19:00,51.2,37.8,30.34,East,88,13.0,15.0,60,0.00,,SKC,0.00,VWS V14.01,2014-01-23 17:19:00,
2014-01-23 11:24:00,51.2,37.8,30.34,East,84,11.0,15.0,60,0.00,,SKC,0.00,VWS V14.01,2014-01-23 17:24:00,
2014-01-23 11:29:00,51.3,38.3,30.34,ENE,75,13.0,15.0,61,0.00,,SKC,0.00,VWS V14.01,2014-01-23 17:29:00,
2014-01-23 11:30:00,51.4,38.0,30.34,ENE,59,9.0,15.0,60,0.00,,SKC,0.00,VWS V14.01,2014-01-23 17:30:00,
2014-01-23 11:34:00,51.8,38.4,30.34,ESE,102,9.0,14.0,60,0.00,,SKC,0.00,VWS V14.01,2014-01-23 17:34:00,
2014-01-23 11:39:00,52.3,38.0,30.34,ESE,111,7.0,14.0,58,0.00,,SKC,0.00,VWS V14.01,2014-01-23 17:39:00,
2014-01-23 11:44:00,52.1,38.2,30.34,East,86,7.0,14.0,59,0.00,,SKC,0.00,VWS V14.01,2014-01-23 17:44:00,
2014-01-23 11:49:00,51.7,38.3,30.34,ENE,60,2.0,15.0,60,0.00,,SKC,0.00,VWS V14.01,2014-01-23 17:49:00,
2014-01-23 11:54:00,51.7,38.3,30.34,East,84,6.0,15.0,60,0.00,,SKC,0.00,VWS V14.01,2014-01-23 17:54:00,
2014-01-23 11:59:00,52.1,38.7,30.34,East,87,5.0,15.0,60,0.00,,SKC,0.00,VWS V14.01,2014-01-23 17:59:00,
2014-01-23 12:00:00,52.2,38.8,30.34,ESE,109,7.0,15.0,60,0.00,,SKC,0.00,VWS V14.01,2014-01-23 18:00:00,
2014-01-23 12:04:00,52.5,38.6,30.33,ENE,74,4.0,12.0,59,0.00,,SKC,0.00,VWS V14.01,2014-01-23 18:04:00,
2014-01-23 12:09:00,52.5,38.6,30.34,East,92,10.0,14.0,59,0.00,,SKC,0.00,VWS V14.01,2014-01-23 18:09:00,
2014-01-23 12:14:00,52.4,38.5,30.34,ESE,107,8.0,14.0,59,0.00,,SKC,0.00,VWS V14.01,2014-01-23 18:14:00,
2014-01-23 12:20:00,52.8,38.5,30.34,ENE,72,8.0,14.0,58,0.00,,SKC,0.00,VWS V14.01,2014-01-23 18:20:00,
2014-01-23 12:25:00,53.0,38.6,30.33,East,84,9.0,14.0,58,0.00,,SKC,0.00,VWS V14.01,2014-01-23 18:25:00,
2014-01-23 12:30:00,52.9,38.5,30.33,East,94,10.0,14.0,58,0.00,,SKC,0.00,VWS V14.01,2014-01-23 18:30:00,
2014-01-23 12:35:00,52.6,38.3,30.33,NE,46,7.0,12.0,58,0.00,,SKC,0.00,VWS V14.01,2014-01-23 18:35:00,
2014-01-23 12:40:00,52.1,37.8,30.33,East,79,16.0,17.0,58,0.00,,SKC,0.00,VWS V14.01,2014-01-23 18:40:00,
2014-01-23 12:45:00,52.1,38.2,30.33,East,93,11.0,17.0,59,0.00,,SKC,0.00,VWS V14.01,2014-01-23 18:45:00,
2014-01-23 12:50:00,52.7,38.3,30.33,ENE,68,10.0,17.0,58,0.00,,SKC,0.00,VWS V14.01,2014-01-23 18:50:00,
2014-01-23 12:55:00,52.4,38.1,30.33,East,91,9.0,17.0,58,0.00,,SKC,0.00,VWS V14.01,2014-01-23 18:55:00,
2014-01-23 13:00:00,52.5,38.2,30.33,ENE,78,8.0,17.0,58,0.00,,SKC,0.00,VWS V14.01,2014-01-23 19:00:00,
2014-01-23 13:05:00,52.5,38.2,30.33,East,94,8.0,17.0,58,0.00,,SKC,0.00,VWS V14.01,2014-01-23 19:05:00,
2014-01-23 13:10:00,52.8,38.0,30.33,East,96,13.0,17.0,57,0.00,,SKC,0.00,VWS V14.01,2014-01-23 19:10:00,
2014-01-23 13:15:00,52.6,37.4,30.33,NE,46,7.0,17.0,56,0.00,,SKC,0.00,VWS V14.01,2014-01-23 19:15:00,
2014-01-23 13:20:00,52.5,37.3,30.32,NE,55,12.0,17.0,56,0.00,,SKC,0.00,VWS V14.01,2014-01-23 19:20:00,
2014-01-23 13:25:00,52.7,37.5,30.32,East,80,7.0,17.0,56,0.00,,SKC,0.00,VWS V14.01,2014-01-23 19:25:00,
2014-01-23 13:30:00,52.3,37.5,30.32,ENE,67,3.0,17.0,57,0.00,,SKC,0.00,VWS V14.01,2014-01-23 19:30:00,
2014-01-23 13:35:00,52.4,37.2,30.32,ENE,59,11.0,15.0,56,0.00,,SKC,0.00,VWS V14.01,2014-01-23 19:35:00,
2014-01-23 13:40:00,52.1,36.9,30.33,ENE,74,3.0,15.0,56,0.00,,SKC,0.00,VWS V14.01,2014-01-23 19:40:00,
2014-01-23 13:45:00,52.3,36.6,30.33,East,87,7.0,15.0,55,0.00,,SKC,0.00,VWS V14.01,2014-01-23 19:45:00,
2014-01-23 13:50:00,52.5,36.8,30.32,ESE,112,7.0,15.0,55,0.00,,SKC,0.00,VWS V14.01,2014-01-23 19:50:00,
2014-01-23 13:55:00,52.4,36.7,30.33,ENE,57,3.0,16.0,55,0.00,,SKC,0.00,VWS V14.01,2014-01-23 19:55:00,
2014-01-23 14:00:00,52.8,36.6,30.33,ENE,68,5.0,16.0,54,0.00,,SKC,0.00,VWS V14.01,2014-01-23 20:00:00,
2014-01-23 14:05:00,52.7,35.6,30.33,East,84,7.0,13.0,52,0.00,,SKC,0.00,VWS V14.01,2014-01-23 20:05:00,
2014-01-23 14:10:00,52.7,36.1,30.32,East,94,11.0,14.0,53,0.00,,SKC,0.00,VWS V14.01,2014-01-23 20:10:00,
2014-01-23 14:15:00,52.7,36.1,30.32,ENE,58,10.0,14.0,53,0.00,,SKC,0.00,VWS V14.01,2014-01-23 20:15:00,
2014-01-23 14:20:00,53.2,36.0,30.32,East,90,9.0,14.0,52,0.00,,SKC,0.00,VWS V14.01,2014-01-23 20:20:00,
2014-01-23 14:25:00,53.0,35.9,30.32,SSE,147,5.0,15.0,52,0.00,,SKC,0.00,VWS V14.01,2014-01-23 20:25:00,
2014-01-23 14:30:00,53.3,36.1,30.32,East,101,7.0,15.0,52,0.00,,SKC,0.00,VWS V14.01,2014-01-23 20:30:00,
2014-01-23 14:35:00,53.5,36.3,30.32,NE,51,9.0,13.0,52,0.00,,SKC,0.00,VWS V14.01,2014-01-23 20:35:00,
2014-01-23 14:40:00,53.6,34.9,30.32,East,88,7.0,14.0,49,0.00,,SKC,0.00,VWS V14.01,2014-01-23 20:40:00,
2014-01-23 14:45:00,53.4,34.7,30.32,ENE,72,4.0,14.0,49,0.00,,SKC,0.00,VWS V14.01,2014-01-23 20:45:00,
2014-01-23 14:50:00,53.3,34.7,30.32,ENE,74,8.0,14.0,49,0.00,,SKC,0.00,VWS V14.01,2014-01-23 20:50:00,
2014-01-23 14:55:00,53.6,35.9,30.32,ENE,58,5.0,14.0,51,0.00,,SKC,0.00,VWS V14.01,2014-01-23 20:55:00,
2014-01-23 15:00:00,54.1,35.9,30.33,East,97,13.0,14.0,50,0.00,,SKC,0.00,VWS V14.01,2014-01-23 21:00:00,
2014-01-23 15:05:00,54.2,33.9,30.32,ESE,107,2.0,11.0,46,0.00,,SKC,0.00,VWS V14.01,2014-01-23 21:05:00,
2014-01-23 15:10:00,54.2,32.8,30.33,ESE,119,5.0,11.0,44,0.00,,SKC,0.00,VWS V14.01,2014-01-23 21:10:00,
2014-01-23 15:15:00,54.0,34.2,30.33,SE,125,6.0,11.0,47,0.00,,SKC,0.00,VWS V14.01,2014-01-23 21:15:00,
2014-01-23 15:20:00,54.1,33.2,30.33,East,97,5.0,11.0,45,0.00,,SKC,0.00,VWS V14.01,2014-01-23 21:20:00,
2014-01-23 15:25:00,54.0,33.2,30.33,East,92,7.0,11.0,45,0.00,,SKC,0.00,VWS V14.01,2014-01-23 21:25:00,
2014-01-23 15:30:00,54.0,33.2,30.33,SE,130,3.0,11.0,45,0.00,,SKC,0.00,VWS V14.01,2014-01-23 21:30:00,
2014-01-23 15:35:00,54.2,31.6,30.33,ESE,117,4.0,14.0,42,0.00,,SKC,0.00,VWS V14.01,2014-01-23 21:35:00,
2014-01-23 15:40:00,54.2,32.2,30.33,ENE,60,2.0,14.0,43,0.00,,SKC,0.00,VWS V14.01,2014-01-23 21:40:00,
2014-01-23 15:45:00,54.2,31.0,30.34,ENE,57,2.0,14.0,41,0.00,,SKC,0.00,VWS V14.01,2014-01-23 21:45:00,
2014-01-23 15:50:00,53.9,30.8,30.34,ESE,103,7.0,14.0,41,0.00,,SKC,0.00,VWS V14.01,2014-01-23 21:50:00,
2014-01-23 15:55:00,54.0,32.6,30.35,ENE,58,4.0,14.0,44,0.00,,SKC,0.00,VWS V14.01,2014-01-23 21:55:00,
2014-01-23 16:00:00,54.0,32.6,30.34,ENE,71,3.0,14.0,44,0.00,,SKC,0.00,VWS V14.01,2014-01-23 22:00:00,
2014-01-23 16:05:00,54.1,32.1,30.34,East,97,2.0,11.0,43,0.00,,SKC,0.00,VWS V14.01,2014-01-23 22:05:00,
2014-01-23 16:10:00,54.1,32.1,30.34,ESE,102,10.0,11.0,43,0.00,,SKC,0.00,VWS V14.01,2014-01-23 22:10:00,
2014-01-23 16:15:00,54.3,33.4,30.34,ESE,114,3.0,11.0,45,0.00,,SKC,0.00,VWS V14.01,2014-01-23 22:15:00,
2014-01-23 16:20:00,54.3,33.4,30.35,ESE,112,3.0,11.0,45,0.00,,SKC,0.00,VWS V14.01,2014-01-23 22:20:00,
2014-01-23 16:25:00,54.0,31.5,30.35,East,84,3.0,11.0,42,0.00,,SKC,0.00,VWS V14.01,2014-01-23 22:25:00,
2014-01-23 16:30:00,53.8,31.9,30.36,East,95,3.0,11.0,43,0.00,,SKC,0.00,VWS V14.01,2014-01-23 22:30:00,
2014-01-23 16:35:00,53.6,29.9,30.36,East,93,1.0,9.0,40,0.00,,SKC,0.00,VWS V14.01,2014-01-23 22:35:00,
2014-01-23 16:40:00,53.6,31.1,30.36,East,98,2.0,9.0,42,0.00,,SKC,0.00,VWS V14.01,2014-01-23 22:40:00,
2014-01-23 16:45:00,53.4,30.3,30.36,ENE,78,1.0,9.0,41,0.00,,SKC,0.00,VWS V14.01,2014-01-23 22:45:00,
2014-01-23 16:50:00,53.1,31.2,30.36,East,85,3.0,10.0,43,0.00,,SKC,0.00,VWS V14.01,2014-01-23 22:50:00,
2014-01-23 16:55:00,52.8,31.5,30.35,ENE,68,5.0,13.0,44,0.00,,SKC,0.00,VWS V14.01,2014-01-23 22:55:00,
2014-01-23 17:00:00,52.7,32.0,30.35,East,89,1.0,13.0,45,0.00,,SKC,0.00,VWS V14.01,2014-01-23 23:00:00,
2014-01-23 17:05:00,52.5,32.3,30.35,ESE,102,3.0,9.0,46,0.00,,SKC,0.00,VWS V14.01,2014-01-23 23:05:00,
2014-01-23 17:10:00,52.4,32.8,30.35,East,98,1.0,9.0,47,0.00,,SKC,0.00,VWS V14.01,2014-01-23 23:10:00,
2014-01-23 17:15:00,52.3,32.2,30.36,ESE,109,1.0,9.0,46,0.00,,SKC,0.00,VWS V14.01,2014-01-23 23:15:00,
2014-01-23 17:20:00,52.1,32.0,30.36,East,83,5.0,9.0,46,0.00,,SKC,0.00,VWS V14.01,2014-01-23 23:20:00,
2014-01-23 17:25:00,52.0,32.4,30.36,ENE,64,1.0,9.0,47,0.00,,SKC,0.00,VWS V14.01,2014-01-23 23:25:00,
2014-01-23 17:30:00,51.9,31.8,30.37,ENE,69,2.0,9.0,46,0.00,,SKC,0.00,VWS V14.01,2014-01-23 23:30:00,
2014-01-23 17:35:00,51.7,31.1,30.37,East,101,7.0,7.0,45,0.00,,SKC,0.00,VWS V14.01,2014-01-23 23:35:00,
2014-01-23 17:40:00,51.7,31.1,30.37,East,86,1.0,7.0,45,0.00,,SKC,0.00,VWS V14.01,2014-01-23 23:40:00,
2014-01-23 17:45:00,51.5,31.4,30.38,ESE,115,0.0,7.0,46,0.00,,SKC,0.00,VWS V14.01,2014-01-23 23:45:00,
2014-01-23 17:50:00,51.4,32.4,30.37,East,95,1.0,7.0,48,0.00,,SKC,0.00,VWS V14.01,2014-01-23 23:50:00,
2014-01-23 17:55:00,51.2,32.7,30.38,East,96,0.0,7.0,49,0.00,,SKC,0.00,VWS V14.01,2014-01-23 23:55:00,
2014-01-23 18:00:00,51.0,32.0,30.38,East,96,0.0,7.0,48,0.00,,SKC,0.00,VWS V14.01,2014-01-24 00:00:00,
2014-01-23 18:05:00,50.9,31.9,30.38,ENE,76,2.0,2.0,48,0.00,,SKC,0.00,VWS V14.01,2014-01-24 00:05:00,
2014-01-23 18:10:00,50.8,32.3,30.38,ENE,72,1.0,3.0,49,0.00,,SKC,0.00,VWS V14.01,2014-01-24 00:10:00,
2014-01-23 18:15:00,50.8,32.3,30.38,ENE,61,3.0,4.0,49,0.00,,SKC,0.00,VWS V14.01,2014-01-24 00:15:00,
2014-01-23 18:20:00,50.8,32.8,30.38,East,87,3.0,4.0,50,0.00,,SKC,0.00,VWS V14.01,2014-01-24 00:20:00,
2014-01-23 18:25:00,50.8,32.8,30.38,East,92,2.0,4.0,50,0.00,,SKC,0.00,VWS V14.01,2014-01-24 00:25:00,
2014-01-23 18:30:00,50.8,32.8,30.38,East,87,0.0,1.0,50,0.00,,SKC,0.00,VWS V14.01,2014-01-24 00:30:00,
2014-01-23 18:35:00,50.7,33.2,30.38,East,95,1.0,3.0,51,0.00,,SKC,0.00,VWS V14.01,2014-01-24 00:35:00,
2014-01-23 18:40:00,50.6,33.2,30.38,East,82,2.0,6.0,51,0.00,,SKC,0.00,VWS V14.01,2014-01-24 00:40:00,
2014-01-23 18:45:00,50.6,33.2,30.38,East,96,0.0,6.0,51,0.00,,SKC,0.00,VWS V14.01,2014-01-24 00:45:00,
2014-01-23 18:50:00,50.5,33.5,30.38,East,90,1.0,6.0,52,0.00,,SKC,0.00,VWS V14.01,2014-01-24 00:50:00,
2014-01-23 18:55:00,50.3,33.4,30.39,East,90,0.0,6.0,52,0.00,,SKC,0.00,VWS V14.01,2014-01-24 00:55:00,
2014-01-23 19:00:00,50.1,33.2,30.39,East,90,0.0,0.0,52,0.00,,SKC,0.00,VWS V14.01,2014-01-24 01:00:00,
2014-01-23 19:05:00,50.0,33.6,30.39,East,90,0.0,1.0,53,0.00,,SKC,0.00,VWS V14.01,2014-01-24 01:05:00,
2014-01-23 19:10:00,49.9,33.9,30.40,NNE,30,1.0,2.0,54,0.00,,SKC,0.00,VWS V14.01,2014-01-24 01:10:00,
2014-01-23 19:15:00,49.8,34.3,30.40,North,5,0.0,3.0,55,0.00,,SKC,0.00,VWS V14.01,2014-01-24 01:15:00,
2014-01-23 19:20:00,49.7,34.7,30.40,North,10,0.0,3.0,56,0.00,,SKC,0.00,VWS V14.01,2014-01-24 01:20:00,
2014-01-23 19:25:00,49.5,35.3,30.40,NNE,15,1.0,3.0,58,0.00,,SKC,0.00,VWS V14.01,2014-01-24 01:25:00,
2014-01-23 19:30:00,49.3,36.0,30.41,NE,53,3.0,3.0,60,0.00,,SKC,0.00,VWS V14.01,2014-01-24 01:30:00,
2014-01-23 19:35:00,49.3,36.4,30.41,NNE,30,1.0,5.0,61,0.00,,SKC,0.00,VWS V14.01,2014-01-24 01:35:00,
2014-01-23 19:40:00,49.3,37.2,30.41,North,355,1.0,5.0,63,0.00,,SKC,0.00,VWS V14.01,2014-01-24 01:40:00,
2014-01-23 19:46:00,49.4,37.3,30.41,NNW,344,4.0,6.0,63,0.00,,SKC,0.00,VWS V14.01,2014-01-24 01:46:00,
2014-01-23 19:51:00,49.7,36.0,30.41,North,10,2.0,9.0,59,0.00,,SKC,0.00,VWS V14.01,2014-01-24 01:51:00,
2014-01-23 19:56:00,49.9,35.3,30.42,North,11,5.0,9.0,57,0.00,,SKC,0.00,VWS V14.01,2014-01-24 01:56:00,
2014-01-23 20:00:00,50.1,34.6,30.42,NE,51,1.0,11.0,55,0.00,,SKC,0.00,VWS V14.01,2014-01-24 02:00:00,
2014-01-23 20:01:00,50.1,34.6,30.42,NNE,15,0.0,2.0,55,0.00,,SKC,0.00,VWS V14.01,2014-01-24 02:01:00,
2014-01-23 20:06:00,50.1,33.7,30.42,NE,50,6.0,10.0,53,0.00,,SKC,0.00,VWS V14.01,2014-01-24 02:06:00,
2014-01-23 20:11:00,50.1,32.7,30.42,NE,43,2.0,11.0,51,0.00,,SKC,0.00,VWS V14.01,2014-01-24 02:11:00,
2014-01-23 20:16:00,49.9,31.5,30.42,North,355,8.0,13.0,49,0.00,,SKC,0.00,VWS V14.01,2014-01-24 02:16:00,
2014-01-23 20:21:00,49.7,31.3,30.41,NE,34,1.0,15.0,49,0.00,,SKC,0.00,VWS V14.01,2014-01-24 02:21:00,
2014-01-23 20:26:00,49.5,31.6,30.41,NE,42,4.0,15.0,50,0.00,,SKC,0.00,VWS V14.01,2014-01-24 02:26:00,
2014-01-23 20:30:00,49.2,31.4,30.42,North,5,11.0,15.0,50,0.00,,SKC,0.00,VWS V14.01,2014-01-24 02:30:00,
2014-01-23 20:31:00,49.2,31.4,30.42,North,355,2.0,11.0,50,0.00,,SKC,0.00,VWS V14.01,2014-01-24 02:31:00,
2014-01-23 20:36:00,49.0,30.7,30.42,NE,35,10.0,14.0,49,0.00,,SKC,0.00,VWS V14.01,2014-01-24 02:36:00,
2014-01-23 20:41:00,48.8,30.5,30.43,NNE,27,9.0,14.0,49,0.00,,SKC,0.00,VWS V14.01,2014-01-24 02:41:00,
2014-01-23 20:46:00,48.7,30.4,30.44,NNE,26,9.0,14.0,49,0.00,,SKC,0.00,VWS V14.01,2014-01-24 02:46:00,
2014-01-23 20:51:00,48.6,30.3,30.44,NNE,12,2.0,14.0,49,0.00,,SKC,0.00,VWS V14.01,2014-01-24 02:51:00,
2014-01-23 20:56:00,48.5,30.7,30.45,North,355,10.0,14.0,50,0.00,,SKC,0.00,VWS V14.01,2014-01-24 02:56:00,
2014-01-23 21:00:00,48.4,30.6,30.45,North,5,2.0,14.0,50,0.00,,SKC,0.00,VWS V14.01,2014-01-24 03:00:00,
2014-01-23 21:01:00,48.4,30.6,30.45,NNW,346,6.0,12.0,50,0.00,,SKC,0.00,VWS V14.01,2014-01-24 03:01:00,
2014-01-23 21:06:00,48.2,30.5,30.45,NE,40,7.0,15.0,50,0.00,,SKC,0.00,VWS V14.01,2014-01-24 03:06:00,
2014-01-23 21:11:00,48.1,30.4,30.45,East,86,5.0,16.0,50,0.00,,SKC,0.00,VWS V14.01,2014-01-24 03:11:00,
2014-01-23 21:16:00,47.9,30.2,30.46,ENE,61,4.0,17.0,50,0.00,,SKC,0.00,VWS V14.01,2014-01-24 03:16:00,
2014-01-23 21:21:00,47.7,30.0,30.45,North,360,8.0,17.0,50,0.00,,SKC,0.00,VWS V14.01,2014-01-24 03:21:00,
2014-01-23 21:26:00,47.5,29.8,30.46,NNW,340,5.0,17.0,50,0.00,,SKC,0.00,VWS V14.01,2014-01-24 03:26:00,
2014-01-23 21:30:00,47.3,29.1,30.47,NW,316,5.0,17.0,49,0.00,,SKC,0.00,VWS V14.01,2014-01-24 03:30:00,
2014-01-23 21:31:00,47.3,29.1,30.47,North,9,2.0,8.0,49,0.00,,SKC,0.00,VWS V14.01,2014-01-24 03:31:00,
2014-01-23 21:36:00,47.2,29.0,30.47,North,355,2.0,14.0,49,0.00,,SKC,0.00,VWS V14.01,2014-01-24 03:36:00,
2014-01-23 21:41:00,47.1,28.9,30.48,North,5,5.0,15.0,49,0.00,,SKC,0.00,VWS V14.01,2014-01-24 03:41:00,
2014-01-23 21:46:00,46.9,28.8,30.48,ENE,63,10.0,17.0,49,0.00,,SKC,0.00,VWS V14.01,2014-01-24 03:46:00,
2014-01-23 21:51:00,46.9,28.8,30.48,NE,39,7.0,17.0,49,0.00,,SKC,0.00,VWS V14.01,2014-01-24 03:51:00,
2014-01-23 21:56:00,46.8,29.2,30.48,North,9,10.0,17.0,50,0.00,,SKC,0.00,VWS V14.01,2014-01-24 03:56:00,
2014-01-23 22:00:00,46.6,29.0,30.48,North,355,6.0,17.0,50,0.00,,SKC,0.00,VWS V14.01,2014-01-24 04:00:00,
2014-01-23 22:01:00,46.6,29.0,30.48,NNE,13,7.0,7.0,50,0.00,,SKC,0.00,VWS V14.01,2014-01-24 04:01:00,
2014-01-23 22:06:00,46.5,29.4,30.49,NNE,33,2.0,14.0,51,0.00,,SKC,0.00,VWS V14.01,2014-01-24 04:06:00,
2014-01-23 22:11:00,46.3,29.2,30.49,NNE,27,4.0,16.0,51,0.00,,SKC,0.00,VWS V14.01,2014-01-24 04:11:00,
2014-01-23 22:16:00,46.3,28.7,30.49,NNE,21,10.0,16.0,50,0.00,,SKC,0.00,VWS V14.01,2014-01-24 04:16:00,
2014-01-23 22:21:00,46.1,28.5,30.49,North,351,7.0,16.0,50,0.00,,SKC,0.00,VWS V14.01,2014-01-24 04:21:00,
2014-01-23 22:26:00,46.0,28.4,30.49,North,5,8.0,17.0,50,0.00,,SKC,0.00,VWS V14.01,2014-01-24 04:26:00,
2014-01-23 22:30:00,45.9,27.8,30.50,North,11,8.0,20.0,49,0.00,,SKC,0.00,VWS V14.01,2014-01-24 04:30:00,
2014-01-23 22:31:00,45.9,27.8,30.50,NNE,16,10.0,17.0,49,0.00,,SKC,0.00,VWS V14.01,2014-01-24 04:31:00,
2014-01-23 22:36:00,45.8,28.2,30.50,NW,321,10.0,17.0,50,0.00,,SKC,0.00,VWS V14.01,2014-01-24 04:36:00,
2014-01-23 22:41:00,45.7,28.1,30.50,NNW,330,4.0,19.0,50,0.00,,SKC,0.00,VWS V14.01,2014-01-24 04:41:00,
2014-01-23 22:46:00,45.5,28.9,30.50,NNE,13,7.0,19.0,52,0.00,,SKC,0.00,VWS V14.01,2014-01-24 04:46:00,
2014-01-23 22:51:00,45.1,28.5,30.50,NNE,33,6.0,19.0,52,0.00,,SKC,0.00,VWS V14.01,2014-01-24 04:51:00,
2014-01-23 22:56:00,44.7,29.5,30.50,NNW,348,9.0,19.0,55,0.00,,SKC,0.00,VWS V14.01,2014-01-24 04:56:00,
2014-01-23 23:00:00,43.8,29.1,30.50,NNW,342,11.0,19.0,56,0.00,,SKC,0.00,VWS V14.01,2014-01-24 05:00:00,
2014-01-23 23:01:00,43.7,29.5,30.50,NNW,327,8.0,12.0,57,0.00,,SKC,0.00,VWS V14.01,2014-01-24 05:01:00,
2014-01-23 23:06:00,43.2,29.4,30.50,NNW,331,9.0,19.0,58,0.00,,SKC,0.00,VWS V14.01,2014-01-24 05:06:00,
2014-01-23 23:11:00,42.8,29.5,30.51,NNW,348,20.0,20.0,59,0.00,,SKC,0.00,VWS V14.01,2014-01-24 05:11:00,
2014-01-23 23:16:00,42.5,29.6,30.51,North,355,7.0,21.0,60,0.00,,SKC,0.00,VWS V14.01,2014-01-24 05:16:00,
2014-01-23 23:21:00,42.4,29.9,30.51,NW,323,7.0,21.0,61,0.00,,SKC,0.00,VWS V14.01,2014-01-24 05:21:00,
2014-01-23 23:26:00,42.1,30.4,30.53,North,355,9.0,21.0,63,0.00,,SKC,0.00,VWS V14.01,2014-01-24 05:26:00,
2014-01-23 23:30:00,41.9,30.6,30.52,North,355,12.0,21.0,64,0.00,,SKC,0.00,VWS V14.01,2014-01-24 05:30:00,
2014-01-23 23:31:00,41.9,31.0,30.51,NNW,345,5.0,17.0,65,0.00,,SKC,0.00,VWS V14.01,2014-01-24 05:31:00,
2014-01-23 23:36:00,41.5,30.2,30.51,NE,34,11.0,20.0,64,0.00,,SKC,0.00,VWS V14.01,2014-01-24 05:36:00,
2014-01-23 23:41:00,41.1,30.6,30.51,NNE,13,15.0,21.0,66,0.00,,SKC,0.00,VWS V14.01,2014-01-24 05:41:00,
2014-01-23 23:46:00,41.0,30.5,30.51,NNE,14,15.0,21.0,66,0.00,,SKC,0.00,VWS V14.01,2014-01-24 05:46:00,
2014-01-23 23:51:00,40.8,31.1,30.52,North,360,7.0,21.0,68,0.00,,SKC,0.00,VWS V14.01,2014-01-24 05:51:00,
2014-01-23 23:56:00,40.6,30.9,30.52,NNW,332,11.0,21.0,68,0.00,,SKC,0.00,VWS V14.01,2014-01-24 05:56:00,